owner,sensor,date,latitude,longitude,vertical_datum,wind_speed,wind_to_direction,wind_speed_of_gust,qcFlag 
NDBC,ioos:station:NOAA.NDBC:PTAT2:1,2019-05-01T00:00:00Z,27.8260,-97.0510,14.9,10.3,120.0,11.3,'11111222,11111222,11111222' 
NDBC,ioos:station:NOAA.NDBC:PTAT2:1,2019-05-01T02:00:00Z,27.8260,-97.0510,14.9,9.8,130.0,11.3,'11111222,11111222,11111222' 
NDBC,ioos:station:NOAA.NDBC:PTAT2:1,2019-05-01T03:00:00Z,27.8260,-97.0510,14.9,9.8,130.0,11.3,'11111222,11111222,11111222' 
NDBC,ioos:station:NOAA.NDBC:PTAT2:1,2019-05-01T04:00:00Z,27.8260,-97.0510,14.9,10.8,140.0,12.4,'11111222,11111222,11111222' 
NDBC,ioos:station:NOAA.NDBC:PTAT2:1,2019-05-01T06:00:00Z,27.8260,-97.0510,14.9,11.3,140.0,12.9,'11111222,11111222,11111222' 
NDBC,ioos:station:NOAA.NDBC:PTAT2:1,2019-05-01T07:00:00Z,27.8260,-97.0510,14.9,9.8,140.0,11.3,'11111222,11111222,11111222' 
NDBC,ioos:station:NOAA.NDBC:PTAT2:1,2019-05-01T08:00:00Z,27.8260,-97.0510,14.9,10.3,140.0,11.8,'11111222,11111222,11111222' 
NDBC,ioos:station:NOAA.NDBC:PTAT2:1,2019-05-01T09:00:00Z,27.8260,-97.0510,14.9,9.8,140.0,11.3,'11111222,11111222,11111222' 
NDBC,ioos:station:NOAA.NDBC:PTAT2:1,2019-05-01T10:00:00Z,27.8260,-97.0510,14.9,9.3,140.0,10.3,'11111222,11111222,11111222' 
NDBC,ioos:station:NOAA.NDBC:PTAT2:1,2019-05-01T11:00:00Z,27.8260,-97.0510,14.9,9.3,130.0,10.8,'11111222,11111222,11111222' 
NDBC,ioos:station:NOAA.NDBC:PTAT2:1,2019-05-01T12:00:00Z,27.8260,-97.0510,14.9,9.3,130.0,9.8,'11111222,11111222,11111222' 
NDBC,ioos:station:NOAA.NDBC:PTAT2:1,2019-05-01T14:00:00Z,27.8260,-97.0510,14.9,8.8,130.0,10.3,'11111222,11111222,11111222' 
NDBC,ioos:station:NOAA.NDBC:PTAT2:1,2019-05-01T16:00:00Z,27.8260,-97.0510,14.9,7.7,120.0,8.2,'11111222,11111222,11111222' 
NDBC,ioos:station:NOAA.NDBC:PTAT2:1,2019-05-01T17:00:00Z,27.8260,-97.0510,14.9,7.7,120.0,8.8,'11111222,11111222,11111222' 
NDBC,ioos:station:NOAA.NDBC:PTAT2:1,2019-05-01T18:00:00Z,27.8260,-97.0510,14.9,7.7,120.0,8.8,'11111222,11111222,11111222' 
NDBC,ioos:station:NOAA.NDBC:PTAT2:1,2019-05-01T19:00:00Z,27.8260,-97.0510,14.9,8.2,120.0,9.3,'11111222,11111222,11111222' 
NDBC,ioos:station:NOAA.NDBC:PTAT2:1,2019-05-01T20:00:00Z,27.8260,-97.0510,14.9,8.8,110.0,9.3,'11111222,11111222,11111222' 
NDBC,ioos:station:NOAA.NDBC:PTAT2:1,2019-05-01T21:00:00Z,27.8260,-97.0510,14.9,8.8,110.0,9.8,'11111222,11111222,11111222' 
NDBC,ioos:station:NOAA.NDBC:PTAT2:1,2019-05-01T22:00:00Z,27.8260,-97.0510,14.9,10.8,110.0,12.4,'11111222,11111222,11111222' 
NDBC,ioos:station:NOAA.NDBC:PTAT2:1,2019-05-01T23:00:00Z,27.8260,-97.0510,14.9,10.3,110.0,11.3,'11111222,11111222,11111222' 
NDBC,ioos:station:NOAA.NDBC:PTAT2:1,2019-05-02T00:00:00Z,27.8260,-97.0510,14.9,9.3,120.0,10.3,'11111222,11111222,11111222' 
NDBC,ioos:station:NOAA.NDBC:PTAT2:1,2019-05-02T02:00:00Z,27.8260,-97.0510,14.9,10.8,130.0,12.4,'11111222,11111222,11111222' 
NDBC,ioos:station:NOAA.NDBC:PTAT2:1,2019-05-02T03:00:00Z,27.8260,-97.0510,14.9,11.8,130.0,13.9,'11111222,11111222,11111222' 
NDBC,ioos:station:NOAA.NDBC:PTAT2:1,2019-05-02T04:00:00Z,27.8260,-97.0510,14.9,10.8,130.0,11.8,'11111222,11111222,11111222' 
NDBC,ioos:station:NOAA.NDBC:PTAT2:1,2019-05-02T05:00:00Z,27.8260,-97.0510,14.9,10.8,120.0,11.8,'11111222,11111222,11111222' 
NDBC,ioos:station:NOAA.NDBC:PTAT2:1,2019-05-02T07:00:00Z,27.8260,-97.0510,14.9,7.7,150.0,8.8,'11111222,11111222,11111222' 
NDBC,ioos:station:NOAA.NDBC:PTAT2:1,2019-05-02T09:00:00Z,27.8260,-97.0510,14.9,5.1,120.0,5.7,'11111222,11111222,11111222' 
NDBC,ioos:station:NOAA.NDBC:PTAT2:1,2019-05-02T11:00:00Z,27.8260,-97.0510,14.9,6.2,110.0,6.7,'11111222,11111222,11111222' 
NDBC,ioos:station:NOAA.NDBC:PTAT2:1,2019-05-02T12:00:00Z,27.8260,-97.0510,14.9,6.2,100.0,6.7,'11111222,11111222,11111222' 
NDBC,ioos:station:NOAA.NDBC:PTAT2:1,2019-05-02T14:00:00Z,27.8260,-97.0510,14.9,5.7,120.0,6.7,'11111222,11111222,11111222' 
NDBC,ioos:station:NOAA.NDBC:PTAT2:1,2019-05-02T15:00:00Z,27.8260,-97.0510,14.9,5.1,70.0,5.7,'11111222,11111222,11111222' 
NDBC,ioos:station:NOAA.NDBC:PTAT2:1,2019-05-02T16:00:00Z,27.8260,-97.0510,14.9,3.6,80.0,4.1,'11111222,11111222,11111222' 
NDBC,ioos:station:NOAA.NDBC:PTAT2:1,2019-05-02T17:00:00Z,27.8260,-97.0510,14.9,6.2,70.0,6.7,'11111222,11111222,11111222' 
NDBC,ioos:station:NOAA.NDBC:PTAT2:1,2019-05-02T18:00:00Z,27.8260,-97.0510,14.9,9.8,90.0,10.3,'11111222,11111222,11111222' 
NDBC,ioos:station:NOAA.NDBC:PTAT2:1,2019-05-02T19:00:00Z,27.8260,-97.0510,14.9,8.2,110.0,8.8,'11111222,11111222,11111222' 
NDBC,ioos:station:NOAA.NDBC:PTAT2:1,2019-05-02T21:00:00Z,27.8260,-97.0510,14.9,9.3,120.0,10.3,'11111222,11111222,11111222' 
NDBC,ioos:station:NOAA.NDBC:PTAT2:1,2019-05-02T22:00:00Z,27.8260,-97.0510,14.9,7.2,110.0,7.7,'11111222,11111222,11111222' 
NDBC,ioos:station:NOAA.NDBC:PTAT2:1,2019-05-02T23:00:00Z,27.8260,-97.0510,14.9,5.1,80.0,5.7,'11111222,11111222,11111222' 
NDBC,ioos:station:NOAA.NDBC:PTAT2:1,2019-05-03T00:00:00Z,27.8260,-97.0510,14.9,6.2,80.0,6.7,'11111222,11111222,11111222' 
NDBC,ioos:station:NOAA.NDBC:PTAT2:1,2019-05-03T02:00:00Z,27.8260,-97.0510,14.9,7.2,70.0,7.7,'11111222,11111222,11111222' 
NDBC,ioos:station:NOAA.NDBC:PTAT2:1,2019-05-03T03:00:00Z,27.8260,-97.0510,14.9,6.7,70.0,7.2,'11111222,11111222,11111222' 
NDBC,ioos:station:NOAA.NDBC:PTAT2:1,2019-05-03T04:00:00Z,27.8260,-97.0510,14.9,7.2,60.0,8.2,'11111222,11111222,11111222' 
NDBC,ioos:station:NOAA.NDBC:PTAT2:1,2019-05-03T05:00:00Z,27.8260,-97.0510,14.9,7.2,80.0,8.2,'11111222,11111222,11111222' 
NDBC,ioos:station:NOAA.NDBC:PTAT2:1,2019-05-03T06:00:00Z,27.8260,-97.0510,14.9,8.2,90.0,9.3,'11111222,11111222,11111222' 
NDBC,ioos:station:NOAA.NDBC:PTAT2:1,2019-05-03T07:00:00Z,27.8260,-97.0510,14.9,9.3,100.0,9.8,'11111222,11111222,11111222' 
NDBC,ioos:station:NOAA.NDBC:PTAT2:1,2019-05-03T08:00:00Z,27.8260,-97.0510,14.9,9.3,110.0,9.8,'11111222,11111222,11111222' 
NDBC,ioos:station:NOAA.NDBC:PTAT2:1,2019-05-03T09:00:00Z,27.8260,-97.0510,14.9,7.7,110.0,8.2,'11111222,11111222,11111222' 
NDBC,ioos:station:NOAA.NDBC:PTAT2:1,2019-05-03T10:00:00Z,27.8260,-97.0510,14.9,7.7,120.0,8.2,'11111222,11111222,11111222' 
NDBC,ioos:station:NOAA.NDBC:PTAT2:1,2019-05-03T12:00:00Z,27.8260,-97.0510,14.9,5.1,100.0,5.7,'11111222,11111222,11111222' 
NDBC,ioos:station:NOAA.NDBC:PTAT2:1,2019-05-03T13:00:00Z,27.8260,-97.0510,14.9,3.1,90.0,3.6,'11111222,11111222,11111222' 
NDBC,ioos:station:NOAA.NDBC:PTAT2:1,2019-05-03T17:00:00Z,27.8260,-97.0510,14.9,9.3,110.0,9.8,'11111222,11111222,11111222' 
NDBC,ioos:station:NOAA.NDBC:PTAT2:1,2019-05-03T18:00:00Z,27.8260,-97.0510,14.9,10.8,140.0,11.8,'11111222,11111222,11111222' 
NDBC,ioos:station:NOAA.NDBC:PTAT2:1,2019-05-03T19:00:00Z,27.8260,-97.0510,14.9,8.8,140.0,9.8,'11111222,11111222,11111222' 
NDBC,ioos:station:NOAA.NDBC:PTAT2:1,2019-05-03T20:00:00Z,27.8260,-97.0510,14.9,6.7,130.0,7.2,'11111222,11111222,11111222' 
NDBC,ioos:station:NOAA.NDBC:PTAT2:1,2019-05-03T21:00:00Z,27.8260,-97.0510,14.9,6.2,130.0,7.2,'11111222,11111222,11111222' 
NDBC,ioos:station:NOAA.NDBC:PTAT2:1,2019-05-03T22:00:00Z,27.8260,-97.0510,14.9,7.7,110.0,8.2,'11111222,11111222,11111222' 
NDBC,ioos:station:NOAA.NDBC:PTAT2:1,2019-05-03T23:00:00Z,27.8260,-97.0510,14.9,6.2,100.0,6.2,'11111222,11111222,11111222' 
NDBC,ioos:station:NOAA.NDBC:PTAT2:1,2019-05-04T00:00:00Z,27.8260,-97.0510,14.9,6.7,100.0,7.7,'11111222,11111222,11111222' 
NDBC,ioos:station:NOAA.NDBC:PTAT2:1,2019-05-04T01:00:00Z,27.8260,-97.0510,14.9,8.2,110.0,9.3,'11111222,11111222,11111222' 
NDBC,ioos:station:NOAA.NDBC:PTAT2:1,2019-05-04T02:00:00Z,27.8260,-97.0510,14.9,7.2,100.0,8.2,'11111222,11111222,11111222' 
NDBC,ioos:station:NOAA.NDBC:PTAT2:1,2019-05-04T03:00:00Z,27.8260,-97.0510,14.9,6.7,90.0,7.2,'11111222,11111222,11111222' 
NDBC,ioos:station:NOAA.NDBC:PTAT2:1,2019-05-04T04:00:00Z,27.8260,-97.0510,14.9,5.7,90.0,6.2,'11111222,11111222,11111222' 
NDBC,ioos:station:NOAA.NDBC:PTAT2:1,2019-05-04T05:00:00Z,27.8260,-97.0510,14.9,14.4,330.0,16.5,'11111222,11111222,11111222' 
NDBC,ioos:station:NOAA.NDBC:PTAT2:1,2019-05-04T06:00:00Z,27.8260,-97.0510,14.9,7.7,340.0,9.3,'11111222,11111222,11111222' 
NDBC,ioos:station:NOAA.NDBC:PTAT2:1,2019-05-04T07:00:00Z,27.8260,-97.0510,14.9,8.8,20.0,9.3,'11111222,11111222,11111222' 
NDBC,ioos:station:NOAA.NDBC:PTAT2:1,2019-05-04T08:00:00Z,27.8260,-97.0510,14.9,7.7,50.0,8.2,'11111222,11111222,11111222' 
NDBC,ioos:station:NOAA.NDBC:PTAT2:1,2019-05-04T09:00:00Z,27.8260,-97.0510,14.9,5.7,60.0,6.2,'11111222,11111222,11111222' 
NDBC,ioos:station:NOAA.NDBC:PTAT2:1,2019-05-04T10:00:00Z,27.8260,-97.0510,14.9,2.1,40.0,2.1,'11111222,11111222,11111222' 
NDBC,ioos:station:NOAA.NDBC:PTAT2:1,2019-05-04T11:00:00Z,27.8260,-97.0510,14.9,2.1,250.0,2.1,'11111222,11111222,11111222' 
NDBC,ioos:station:NOAA.NDBC:PTAT2:1,2019-05-04T12:00:00Z,27.8260,-97.0510,14.9,3.6,10.0,4.1,'11111222,11111222,11111222' 
NDBC,ioos:station:NOAA.NDBC:PTAT2:1,2019-05-04T13:00:00Z,27.8260,-97.0510,14.9,2.1,100.0,2.6,'11111222,11111222,11111222' 
NDBC,ioos:station:NOAA.NDBC:PTAT2:1,2019-05-04T14:00:00Z,27.8260,-97.0510,14.9,4.6,340.0,5.7,'11111222,11111222,11111222' 
NDBC,ioos:station:NOAA.NDBC:PTAT2:1,2019-05-04T15:00:00Z,27.8260,-97.0510,14.9,4.1,360.0,4.6,'11111222,11144222,11111222' 
NDBC,ioos:station:NOAA.NDBC:PTAT2:1,2019-05-04T16:00:00Z,27.8260,-97.0510,14.9,5.7,10.0,6.2,'11111222,11111222,11111222' 
NDBC,ioos:station:NOAA.NDBC:PTAT2:1,2019-05-04T17:00:00Z,27.8260,-97.0510,14.9,4.6,40.0,5.1,'11111222,11111222,11111222' 
NDBC,ioos:station:NOAA.NDBC:PTAT2:1,2019-05-04T18:00:00Z,27.8260,-97.0510,14.9,3.6,40.0,4.1,'11111222,11111222,11111222' 
NDBC,ioos:station:NOAA.NDBC:PTAT2:1,2019-05-04T19:00:00Z,27.8260,-97.0510,14.9,2.6,80.0,3.1,'11111222,11111222,11111222' 
NDBC,ioos:station:NOAA.NDBC:PTAT2:1,2019-05-04T20:00:00Z,27.8260,-97.0510,14.9,2.6,80.0,3.1,'11111222,11111222,11111222' 
NDBC,ioos:station:NOAA.NDBC:PTAT2:1,2019-05-04T21:00:00Z,27.8260,-97.0510,14.9,2.6,60.0,3.1,'11111222,11111222,11111222' 
NDBC,ioos:station:NOAA.NDBC:PTAT2:1,2019-05-04T22:00:00Z,27.8260,-97.0510,14.9,3.6,100.0,3.6,'11111222,11111222,11111222' 
NDBC,ioos:station:NOAA.NDBC:PTAT2:1,2019-05-04T23:00:00Z,27.8260,-97.0510,14.9,4.6,110.0,5.1,'11111222,11111222,11111222' 
NDBC,ioos:station:NOAA.NDBC:PTAT2:1,2019-05-05T00:00:00Z,27.8260,-97.0510,14.9,4.1,130.0,4.6,'11111222,11111222,11111222' 
NDBC,ioos:station:NOAA.NDBC:PTAT2:1,2019-05-05T02:00:00Z,27.8260,-97.0510,14.9,2.6,120.0,2.6,'11111222,11111222,11111222' 
NDBC,ioos:station:NOAA.NDBC:PTAT2:1,2019-05-05T03:00:00Z,27.8260,-97.0510,14.9,2.1,100.0,2.6,'11111222,11111222,11111222' 
NDBC,ioos:station:NOAA.NDBC:PTAT2:1,2019-05-05T04:00:00Z,27.8260,-97.0510,14.9,1.5,120.0,2.1,'11111222,11111222,11111222' 
NDBC,ioos:station:NOAA.NDBC:PTAT2:1,2019-05-05T05:00:00Z,27.8260,-97.0510,14.9,0.0,-9999.0,0.5,'11111222,11111222,11111222' 
NDBC,ioos:station:NOAA.NDBC:PTAT2:1,2019-05-05T06:00:00Z,27.8260,-97.0510,14.9,2.6,150.0,2.6,'11111222,11111222,11111222' 
NDBC,ioos:station:NOAA.NDBC:PTAT2:1,2019-05-05T07:00:00Z,27.8260,-97.0510,14.9,1.5,160.0,2.1,'11111222,11111222,11111222' 
NDBC,ioos:station:NOAA.NDBC:PTAT2:1,2019-05-05T08:00:00Z,27.8260,-97.0510,14.9,3.6,200.0,3.6,'11111222,11111222,11111222' 
NDBC,ioos:station:NOAA.NDBC:PTAT2:1,2019-05-05T09:00:00Z,27.8260,-97.0510,14.9,1.0,250.0,1.5,'11111222,11111222,11111222' 
NDBC,ioos:station:NOAA.NDBC:PTAT2:1,2019-05-05T10:00:00Z,27.8260,-97.0510,14.9,1.0,330.0,1.0,'11111222,11111222,11111222' 
NDBC,ioos:station:NOAA.NDBC:PTAT2:1,2019-05-05T11:00:00Z,27.8260,-97.0510,14.9,1.5,360.0,2.1,'11111222,11144222,11111222' 
NDBC,ioos:station:NOAA.NDBC:PTAT2:1,2019-05-05T12:00:00Z,27.8260,-97.0510,14.9,3.6,20.0,4.1,'11111222,11111222,11111222' 
NDBC,ioos:station:NOAA.NDBC:PTAT2:1,2019-05-05T14:00:00Z,27.8260,-97.0510,14.9,3.6,70.0,3.6,'11111222,11111222,11111222' 
NDBC,ioos:station:NOAA.NDBC:PTAT2:1,2019-05-05T15:00:00Z,27.8260,-97.0510,14.9,2.6,80.0,3.1,'11111222,11111222,11111222' 
NDBC,ioos:station:NOAA.NDBC:PTAT2:1,2019-05-05T16:00:00Z,27.8260,-97.0510,14.9,3.1,80.0,4.1,'11111222,11111222,11111222' 
NDBC,ioos:station:NOAA.NDBC:PTAT2:1,2019-05-05T17:00:00Z,27.8260,-97.0510,14.9,5.1,90.0,5.7,'11111222,11111222,11111222' 
NDBC,ioos:station:NOAA.NDBC:PTAT2:1,2019-05-05T18:00:00Z,27.8260,-97.0510,14.9,6.7,80.0,7.2,'11111222,11111222,11111222' 
NDBC,ioos:station:NOAA.NDBC:PTAT2:1,2019-05-05T19:00:00Z,27.8260,-97.0510,14.9,6.7,80.0,7.7,'11111222,11111222,11111222' 
NDBC,ioos:station:NOAA.NDBC:PTAT2:1,2019-05-05T20:00:00Z,27.8260,-97.0510,14.9,5.7,80.0,6.2,'11111222,11111222,11111222' 
NDBC,ioos:station:NOAA.NDBC:PTAT2:1,2019-05-05T21:00:00Z,27.8260,-97.0510,14.9,7.2,90.0,8.2,'11111222,11111222,11111222' 
NDBC,ioos:station:NOAA.NDBC:PTAT2:1,2019-05-05T22:00:00Z,27.8260,-97.0510,14.9,7.2,90.0,8.2,'11111222,11111222,11111222' 
NDBC,ioos:station:NOAA.NDBC:PTAT2:1,2019-05-05T23:00:00Z,27.8260,-97.0510,14.9,6.7,90.0,7.7,'11111222,11111222,11111222' 
NDBC,ioos:station:NOAA.NDBC:PTAT2:1,2019-05-06T00:00:00Z,27.8260,-97.0510,14.9,8.2,90.0,8.8,'11111222,11111222,11111222' 
NDBC,ioos:station:NOAA.NDBC:PTAT2:1,2019-05-06T02:00:00Z,27.8260,-97.0510,14.9,8.8,90.0,9.3,'11111222,11111222,11111222' 
NDBC,ioos:station:NOAA.NDBC:PTAT2:1,2019-05-06T03:00:00Z,27.8260,-97.0510,14.9,9.3,100.0,10.3,'11111222,11111222,11111222' 
NDBC,ioos:station:NOAA.NDBC:PTAT2:1,2019-05-06T04:00:00Z,27.8260,-97.0510,14.9,8.2,100.0,9.3,'11111222,11111222,11111222' 
NDBC,ioos:station:NOAA.NDBC:PTAT2:1,2019-05-06T05:00:00Z,27.8260,-97.0510,14.9,9.3,110.0,10.3,'11111222,11111222,11111222' 
NDBC,ioos:station:NOAA.NDBC:PTAT2:1,2019-05-06T06:00:00Z,27.8260,-97.0510,14.9,8.2,120.0,9.3,'11111222,11111222,11111222' 
NDBC,ioos:station:NOAA.NDBC:PTAT2:1,2019-05-06T07:00:00Z,27.8260,-97.0510,14.9,8.8,110.0,9.8,'11111222,11111222,11111222' 
NDBC,ioos:station:NOAA.NDBC:PTAT2:1,2019-05-06T08:00:00Z,27.8260,-97.0510,14.9,6.7,110.0,7.2,'11111222,11111222,11111222' 
NDBC,ioos:station:NOAA.NDBC:PTAT2:1,2019-05-06T09:00:00Z,27.8260,-97.0510,14.9,7.2,110.0,7.7,'11111222,11111222,11111222' 
NDBC,ioos:station:NOAA.NDBC:PTAT2:1,2019-05-06T10:00:00Z,27.8260,-97.0510,14.9,5.7,140.0,6.2,'11111222,11111222,11111222' 
NDBC,ioos:station:NOAA.NDBC:PTAT2:1,2019-05-06T11:00:00Z,27.8260,-97.0510,14.9,4.6,140.0,5.1,'11111222,11111222,11111222' 
NDBC,ioos:station:NOAA.NDBC:PTAT2:1,2019-05-06T12:00:00Z,27.8260,-97.0510,14.9,3.1,110.0,3.6,'11111222,11111222,11111222' 
NDBC,ioos:station:NOAA.NDBC:PTAT2:1,2019-05-06T13:00:00Z,27.8260,-97.0510,14.9,6.2,70.0,6.7,'11111222,11111222,11111222' 
NDBC,ioos:station:NOAA.NDBC:PTAT2:1,2019-05-06T14:00:00Z,27.8260,-97.0510,14.9,6.2,90.0,-9999.0,'11111222,11111222,11111222' 
NDBC,ioos:station:NOAA.NDBC:PTAT2:1,2019-05-06T15:00:00Z,27.8260,-97.0510,14.9,5.7,90.0,6.2,'11111222,11111222,11111222' 
NDBC,ioos:station:NOAA.NDBC:PTAT2:1,2019-05-06T16:00:00Z,27.8260,-97.0510,14.9,5.1,80.0,5.1,'11111222,11111222,11111222' 
NDBC,ioos:station:NOAA.NDBC:PTAT2:1,2019-05-06T17:00:00Z,27.8260,-97.0510,14.9,5.7,80.0,6.2,'11111222,11111222,11111222' 
NDBC,ioos:station:NOAA.NDBC:PTAT2:1,2019-05-06T18:00:00Z,27.8260,-97.0510,14.9,5.1,110.0,5.7,'11111222,11111222,11111222' 
NDBC,ioos:station:NOAA.NDBC:PTAT2:1,2019-05-06T19:00:00Z,27.8260,-97.0510,14.9,3.6,90.0,4.1,'11111222,11111222,11111222' 
NDBC,ioos:station:NOAA.NDBC:PTAT2:1,2019-05-06T20:00:00Z,27.8260,-97.0510,14.9,16.5,80.0,18.0,'11111222,11111222,11111222' 
NDBC,ioos:station:NOAA.NDBC:PTAT2:1,2019-05-06T21:00:00Z,27.8260,-97.0510,14.9,10.8,100.0,11.8,'11111222,11111222,11111222' 
NDBC,ioos:station:NOAA.NDBC:PTAT2:1,2019-05-06T22:00:00Z,27.8260,-97.0510,14.9,2.6,40.0,2.6,'11111222,11111222,11111222' 
NDBC,ioos:station:NOAA.NDBC:PTAT2:1,2019-05-06T23:00:00Z,27.8260,-97.0510,14.9,2.6,80.0,2.6,'11111222,11111222,11111222' 
NDBC,ioos:station:NOAA.NDBC:PTAT2:1,2019-05-07T00:00:00Z,27.8260,-97.0510,14.9,5.1,100.0,5.7,'11111222,11111222,11111222' 
NDBC,ioos:station:NOAA.NDBC:PTAT2:1,2019-05-07T02:00:00Z,27.8260,-97.0510,14.9,7.7,100.0,8.2,'11111222,11111222,11111222' 
NDBC,ioos:station:NOAA.NDBC:PTAT2:1,2019-05-07T03:00:00Z,27.8260,-97.0510,14.9,8.8,110.0,10.8,'11111222,11111222,11111222' 
NDBC,ioos:station:NOAA.NDBC:PTAT2:1,2019-05-07T04:00:00Z,27.8260,-97.0510,14.9,9.3,90.0,10.3,'11111222,11111222,11111222' 
NDBC,ioos:station:NOAA.NDBC:PTAT2:1,2019-05-07T05:00:00Z,27.8260,-97.0510,14.9,7.2,80.0,7.7,'11111222,11111222,11111222' 
NDBC,ioos:station:NOAA.NDBC:PTAT2:1,2019-05-07T07:00:00Z,27.8260,-97.0510,14.9,7.7,110.0,8.8,'11111222,11111222,11111222' 
NDBC,ioos:station:NOAA.NDBC:PTAT2:1,2019-05-07T08:00:00Z,27.8260,-97.0510,14.9,6.2,120.0,7.7,'11111222,11111222,11111222' 
NDBC,ioos:station:NOAA.NDBC:PTAT2:1,2019-05-07T09:00:00Z,27.8260,-97.0510,14.9,6.2,120.0,7.7,'11111222,11111222,11111222' 
NDBC,ioos:station:NOAA.NDBC:PTAT2:1,2019-05-07T11:00:00Z,27.8260,-97.0510,14.9,6.2,110.0,7.2,'11111222,11111222,11111222' 
NDBC,ioos:station:NOAA.NDBC:PTAT2:1,2019-05-07T12:00:00Z,27.8260,-97.0510,14.9,6.7,110.0,7.2,'11111222,11111222,11111222' 
NDBC,ioos:station:NOAA.NDBC:PTAT2:1,2019-05-07T14:00:00Z,27.8260,-97.0510,14.9,5.7,110.0,6.2,'11111222,11111222,11111222' 
NDBC,ioos:station:NOAA.NDBC:PTAT2:1,2019-05-07T15:00:00Z,27.8260,-97.0510,14.9,6.7,90.0,7.7,'11111222,11111222,11111222' 
NDBC,ioos:station:NOAA.NDBC:PTAT2:1,2019-05-07T16:00:00Z,27.8260,-97.0510,14.9,7.2,90.0,8.2,'11111222,11111222,11111222' 
NDBC,ioos:station:NOAA.NDBC:PTAT2:1,2019-05-07T17:00:00Z,27.8260,-97.0510,14.9,6.2,110.0,7.2,'11111222,11111222,11111222' 
NDBC,ioos:station:NOAA.NDBC:PTAT2:1,2019-05-07T18:00:00Z,27.8260,-97.0510,14.9,5.1,90.0,5.7,'11111222,11111222,11111222' 
NDBC,ioos:station:NOAA.NDBC:PTAT2:1,2019-05-07T19:00:00Z,27.8260,-97.0510,14.9,5.7,110.0,5.7,'11111222,11111222,11111222' 
NDBC,ioos:station:NOAA.NDBC:PTAT2:1,2019-05-07T20:00:00Z,27.8260,-97.0510,14.9,5.7,120.0,7.2,'11111222,11111222,11111222' 
NDBC,ioos:station:NOAA.NDBC:PTAT2:1,2019-05-07T21:00:00Z,27.8260,-97.0510,14.9,5.7,110.0,6.2,'11111222,11111222,11111222' 
NDBC,ioos:station:NOAA.NDBC:PTAT2:1,2019-05-07T22:00:00Z,27.8260,-97.0510,14.9,8.2,120.0,9.3,'11111222,11111222,11111222' 
NDBC,ioos:station:NOAA.NDBC:PTAT2:1,2019-05-07T23:00:00Z,27.8260,-97.0510,14.9,9.3,110.0,10.8,'11111222,11111222,11111222' 
NDBC,ioos:station:NOAA.NDBC:PTAT2:1,2019-05-08T00:00:00Z,27.8260,-97.0510,14.9,11.3,110.0,12.4,'11111222,11111222,11111222' 
NDBC,ioos:station:NOAA.NDBC:PTAT2:1,2019-05-08T01:00:00Z,27.8260,-97.0510,14.9,11.8,110.0,14.4,'11111222,11111222,11111222' 
NDBC,ioos:station:NOAA.NDBC:PTAT2:1,2019-05-08T02:00:00Z,27.8260,-97.0510,14.9,13.9,120.0,16.5,'11111222,11111222,11111222' 
NDBC,ioos:station:NOAA.NDBC:PTAT2:1,2019-05-08T03:00:00Z,27.8260,-97.0510,14.9,11.8,110.0,12.9,'11111222,11111222,11111222' 
NDBC,ioos:station:NOAA.NDBC:PTAT2:1,2019-05-08T04:00:00Z,27.8260,-97.0510,14.9,10.8,110.0,12.4,'11111222,11111222,11111222' 
NDBC,ioos:station:NOAA.NDBC:PTAT2:1,2019-05-08T05:00:00Z,27.8260,-97.0510,14.9,9.3,110.0,11.3,'11111222,11111222,11111222' 
NDBC,ioos:station:NOAA.NDBC:PTAT2:1,2019-05-08T06:00:00Z,27.8260,-97.0510,14.9,9.3,120.0,10.8,'11111222,11111222,11111222' 
NDBC,ioos:station:NOAA.NDBC:PTAT2:1,2019-05-08T07:00:00Z,27.8260,-97.0510,14.9,11.3,120.0,12.9,'11111222,11111222,11111222' 
NDBC,ioos:station:NOAA.NDBC:PTAT2:1,2019-05-08T08:00:00Z,27.8260,-97.0510,14.9,11.8,130.0,13.4,'11111222,11111222,11111222' 
NDBC,ioos:station:NOAA.NDBC:PTAT2:1,2019-05-08T09:00:00Z,27.8260,-97.0510,14.9,9.3,130.0,10.3,'11111222,11111222,11111222' 
NDBC,ioos:station:NOAA.NDBC:PTAT2:1,2019-05-08T10:00:00Z,27.8260,-97.0510,14.9,9.8,130.0,10.8,'11111222,11111222,11111222' 
NDBC,ioos:station:NOAA.NDBC:PTAT2:1,2019-05-08T11:00:00Z,27.8260,-97.0510,14.9,9.3,140.0,10.3,'11111222,11111222,11111222' 
NDBC,ioos:station:NOAA.NDBC:PTAT2:1,2019-05-08T12:00:00Z,27.8260,-97.0510,14.9,9.8,140.0,11.8,'11111222,11111222,11111222' 
NDBC,ioos:station:NOAA.NDBC:PTAT2:1,2019-05-08T13:00:00Z,27.8260,-97.0510,14.9,11.8,150.0,12.9,'11111222,11111222,11111222' 
NDBC,ioos:station:NOAA.NDBC:PTAT2:1,2019-05-08T14:00:00Z,27.8260,-97.0510,14.9,8.8,150.0,9.8,'11111222,11111222,11111222' 
NDBC,ioos:station:NOAA.NDBC:PTAT2:1,2019-05-08T15:00:00Z,27.8260,-97.0510,14.9,9.3,160.0,10.3,'11111222,11111222,11111222' 
NDBC,ioos:station:NOAA.NDBC:PTAT2:1,2019-05-08T16:00:00Z,27.8260,-97.0510,14.9,7.7,160.0,8.2,'11111222,11111222,11111222' 
NDBC,ioos:station:NOAA.NDBC:PTAT2:1,2019-05-08T18:00:00Z,27.8260,-97.0510,14.9,7.7,150.0,8.8,'11111222,11111222,11111222' 
NDBC,ioos:station:NOAA.NDBC:PTAT2:1,2019-05-08T19:00:00Z,27.8260,-97.0510,14.9,5.7,130.0,6.2,'11111222,11111222,11111222' 
NDBC,ioos:station:NOAA.NDBC:PTAT2:1,2019-05-08T20:00:00Z,27.8260,-97.0510,14.9,5.1,110.0,5.7,'11111222,11111222,11111222' 
NDBC,ioos:station:NOAA.NDBC:PTAT2:1,2019-05-08T21:00:00Z,27.8260,-97.0510,14.9,6.2,110.0,7.2,'11111222,11111222,11111222' 
NDBC,ioos:station:NOAA.NDBC:PTAT2:1,2019-05-08T23:00:00Z,27.8260,-97.0510,14.9,7.2,110.0,8.8,'11111222,11111222,11111222' 
NDBC,ioos:station:NOAA.NDBC:PTAT2:1,2019-05-09T00:00:00Z,27.8260,-97.0510,14.9,6.7,110.0,7.7,'11111222,11111222,11111222' 
NDBC,ioos:station:NOAA.NDBC:PTAT2:1,2019-05-09T01:00:00Z,27.8260,-97.0510,14.9,6.2,110.0,7.2,'11111222,11111222,11111222' 
NDBC,ioos:station:NOAA.NDBC:PTAT2:1,2019-05-09T02:00:00Z,27.8260,-97.0510,14.9,5.7,120.0,6.7,'11111222,11111222,11111222' 
NDBC,ioos:station:NOAA.NDBC:PTAT2:1,2019-05-09T03:00:00Z,27.8260,-97.0510,14.9,7.2,130.0,7.7,'11111222,11111222,11111222' 
NDBC,ioos:station:NOAA.NDBC:PTAT2:1,2019-05-09T04:00:00Z,27.8260,-97.0510,14.9,7.7,140.0,8.2,'11111222,11111222,11111222' 
NDBC,ioos:station:NOAA.NDBC:PTAT2:1,2019-05-09T05:00:00Z,27.8260,-97.0510,14.9,8.8,150.0,9.8,'11111222,11111222,11111222' 
NDBC,ioos:station:NOAA.NDBC:PTAT2:1,2019-05-09T06:00:00Z,27.8260,-97.0510,14.9,7.2,150.0,8.2,'11111222,11111222,11111222' 
NDBC,ioos:station:NOAA.NDBC:PTAT2:1,2019-05-09T07:00:00Z,27.8260,-97.0510,14.9,7.2,140.0,7.7,'11111222,11111222,11111222' 
NDBC,ioos:station:NOAA.NDBC:PTAT2:1,2019-05-09T08:00:00Z,27.8260,-97.0510,14.9,7.7,140.0,8.8,'11111222,11111222,11111222' 
NDBC,ioos:station:NOAA.NDBC:PTAT2:1,2019-05-09T09:00:00Z,27.8260,-97.0510,14.9,6.7,130.0,7.7,'11111222,11111222,11111222' 
NDBC,ioos:station:NOAA.NDBC:PTAT2:1,2019-05-09T10:00:00Z,27.8260,-97.0510,14.9,6.7,130.0,7.2,'11111222,11111222,11111222' 
NDBC,ioos:station:NOAA.NDBC:PTAT2:1,2019-05-09T11:00:00Z,27.8260,-97.0510,14.9,5.7,130.0,6.2,'11111222,11111222,11111222' 
NDBC,ioos:station:NOAA.NDBC:PTAT2:1,2019-05-09T12:00:00Z,27.8260,-97.0510,14.9,4.6,130.0,5.7,'11111222,11111222,11111222' 
NDBC,ioos:station:NOAA.NDBC:PTAT2:1,2019-05-09T13:00:00Z,27.8260,-97.0510,14.9,5.1,120.0,5.7,'11111222,11111222,11111222' 
NDBC,ioos:station:NOAA.NDBC:PTAT2:1,2019-05-09T14:00:00Z,27.8260,-97.0510,14.9,5.1,120.0,5.7,'11111222,11111222,11111222' 
NDBC,ioos:station:NOAA.NDBC:PTAT2:1,2019-05-09T15:00:00Z,27.8260,-97.0510,14.9,5.7,120.0,6.7,'11111222,11111222,11111222' 
NDBC,ioos:station:NOAA.NDBC:PTAT2:1,2019-05-09T16:00:00Z,27.8260,-97.0510,14.9,5.1,110.0,5.7,'11111222,11111222,11111222' 
NDBC,ioos:station:NOAA.NDBC:PTAT2:1,2019-05-09T17:00:00Z,27.8260,-97.0510,14.9,5.7,110.0,6.2,'11111222,11111222,11111222' 
NDBC,ioos:station:NOAA.NDBC:PTAT2:1,2019-05-09T18:00:00Z,27.8260,-97.0510,14.9,5.7,90.0,6.2,'11111222,11111222,11111222' 
NDBC,ioos:station:NOAA.NDBC:PTAT2:1,2019-05-09T19:00:00Z,27.8260,-97.0510,14.9,2.1,60.0,2.6,'11111222,11111222,11111222' 
NDBC,ioos:station:NOAA.NDBC:PTAT2:1,2019-05-09T20:00:00Z,27.8260,-97.0510,14.9,8.2,100.0,9.3,'11111222,11111222,11111222' 
NDBC,ioos:station:NOAA.NDBC:PTAT2:1,2019-05-09T21:00:00Z,27.8260,-97.0510,14.9,8.2,90.0,8.8,'11111222,11111222,11111222' 
NDBC,ioos:station:NOAA.NDBC:PTAT2:1,2019-05-09T22:00:00Z,27.8260,-97.0510,14.9,8.2,90.0,8.8,'11111222,11111222,11111222' 
NDBC,ioos:station:NOAA.NDBC:PTAT2:1,2019-05-09T23:00:00Z,27.8260,-97.0510,14.9,8.8,80.0,9.8,'11111222,11111222,11111222' 
NDBC,ioos:station:NOAA.NDBC:PTAT2:1,2019-05-10T00:00:00Z,27.8260,-97.0510,14.9,7.7,80.0,9.3,'11111222,11111222,11111222' 
NDBC,ioos:station:NOAA.NDBC:PTAT2:1,2019-05-10T01:00:00Z,27.8260,-97.0510,14.9,7.2,70.0,7.7,'11111222,11111222,11111222' 